Flag Weather past 2 weeks in Linden, Guyana

Now
75 °F

Clear.


Feels Like: 74 °F
Forecast: 74 / 90 °F
Wind: 5 mph from Northeast

Location: Georgetown/Cheddi Jagan International Airport

Current Time: Oct 31, 2014 at 1:10:32 AM

Latest Report: Oct 31, 2014 at 12:00 AM


Visibility: 10 mi

Pressure: 29.80 "Hg

Humidity: 94%

Dew point: 73 °F

Location of LindenLocation

Historic Weather in Linden — Graph

°F

Linden temperature yesterday

Maximum temperature yesterday: 91 °F (at 12:00 PM)
Minimum temperature yesterday: 72 °F (at 6:00 AM)
Average temperature yesterday: 80 °F

Past Weeks' High & Low Weather Summary

 TemperatureHumidityPressure
High93 °F (Oct 16, 2:00 PM)100% (Oct 16, 5:00 AM)29.98 "Hg (Oct 16, 5:00 AM)
Low70 °F (Oct 20, 5:00 AM)49% (Oct 16, 3:00 PM)29.74 "Hg (Oct 25, 5:00 PM)
Average80 °F86%29.85 "Hg
* Reported Midnight between Oct 15 and Oct 16 — Midnight between Oct 30 and Oct 31, Linden, Weather by CustomWeather, © 2014

Note: Actual official high and low records may vary slightly from our data, if they occured in-between our weather recording intervals... More about our weather records

Advertising

Linden weather history for previous 24 hours

 ConditionsComfort  
Time TempWeatherWind HumidityBarometerVisibility
12:00 AM
Oct 31
75 °FClear.5 mph94%29.80 "Hg10 mi
11:00 PM
Oct 30
75 °FPassing clouds.5 mph100%29.80 "HgN/A
10:00 PM75 °FPassing clouds.7 mph100%29.83 "HgN/A
9:00 PM77 °FPassing clouds.7 mph94%29.83 "HgN/A
8:00 PM77 °FPassing clouds.5 mph94%29.80 "HgN/A
7:00 PM77 °FPassing clouds.5 mph94%29.80 "HgN/A
6:00 PM77 °FPassing clouds.No wind100%29.77 "HgN/A
5:00 PM79 °FThunderstorms. Partly sunny.No wind94%29.77 "Hg6 mi
4:00 PM79 °FThunderstorms. Broken clouds.5 mph94%29.77 "Hg6 mi
3:00 PM79 °FThunderstorms. Broken clouds.7 mph89%29.74 "Hg5 mi
2:00 PM77 °FThunderstorms. Partly sunny.5 mph94%29.77 "Hg5 mi
1:00 PM90 °FSprinkles. Partly sunny.12 mph63%29.77 "Hg5 mi
12:00 PM91 °FPartly sunny.5 mph59%29.80 "HgN/A
11:00 AM90 °FPartly sunny.7 mph55%29.83 "HgN/A
10:00 AM88 °FPartly sunny.9 mph59%29.86 "HgN/A
9:00 AM86 °FPartly sunny.12 mph70%29.86 "HgN/A
8:00 AM81 °FScattered clouds.5 mph89%29.86 "HgN/A
7:13 AM73 °FFog.5 mph100%29.83 "Hg3 mi
7:00 AM75 °FPassing clouds.5 mph94%29.83 "HgN/A
6:00 AM72 °FPassing clouds.5 mph100%29.83 "HgN/A
Weather by CustomWeather, © 2014

See weather overviewHow to use our weather pages